SWA2586 KLAS-KDEN

Flight info

Callsign SWA2586
Flight time N/A
Altitude 37000
Route GIDGT3 TUKRR BUMMP SSKII4
Aircraft B737/M-SDE2E3FGHIRWXY/LB1

Departure

Time N/A
Airport Harry Reid International Airport (KLAS)

Arrival

Time 2026-05-04 21:06
Airport Denver International Airport (KDEN)
Time Latitude Longitude Altitude Speed Heading
2026-05-04 20:28 38.01355 -109.13498 36824 ft 534 kts 57°
2026-05-04 20:28 38.03191 -109.09348 36833 ft 534 kts 56°
2026-05-04 20:29 38.06822 -109.01122 36810 ft 534 kts 56°
2026-05-04 20:29 38.10438 -108.92905 36805 ft 533 kts 57°
2026-05-04 20:30 38.13828 -108.84523 36807 ft 534 kts 60°
2026-05-04 20:30 38.17062 -108.76090 36812 ft 535 kts 60°
2026-05-04 20:31 38.20334 -108.67612 36797 ft 534 kts 59°
2026-05-04 20:31 38.23630 -108.59162 36819 ft 532 kts 59°
2026-05-04 20:32 38.26925 -108.50721 36811 ft 533 kts 59°
2026-05-04 20:32 38.30212 -108.42272 36823 ft 532 kts 59°
2026-05-04 20:33 38.33490 -108.33815 36809 ft 533 kts 59°
2026-05-04 20:33 38.36769 -108.25328 36820 ft 534 kts 59°
2026-05-04 20:34 38.40048 -108.16820 36877 ft 536 kts 59°
2026-05-04 20:34 38.43328 -108.08285 36919 ft 536 kts 59°
2026-05-04 20:35 38.46598 -107.99750 36980 ft 536 kts 59°
2026-05-04 20:35 38.49844 -107.91183 36970 ft 536 kts 60°
2026-05-04 20:36 38.53074 -107.82606 36972 ft 536 kts 60°
2026-05-04 20:36 38.54688 -107.78314 36793 ft 536 kts 60°
2026-05-04 20:36 38.56279 -107.74079 36841 ft 536 kts 60°
2026-05-04 20:37 38.59510 -107.65471 36790 ft 539 kts 60°
2026-05-04 20:37 38.62735 -107.56848 36812 ft 537 kts 60°
2026-05-04 20:38 38.65948 -107.48239 36834 ft 536 kts 60°
2026-05-04 20:38 38.69193 -107.39648 36873 ft 536 kts 59°
2026-05-04 20:39 38.72452 -107.31064 36870 ft 536 kts 59°
2026-05-04 20:39 38.75699 -107.22471 36880 ft 536 kts 59°
2026-05-04 20:40 38.78937 -107.13858 36859 ft 537 kts 59°
2026-05-04 20:40 38.82159 -107.05261 36451 ft 540 kts 59°
2026-05-04 20:41 38.83780 -107.00926 35991 ft 539 kts 59°
2026-05-04 20:41 38.85394 -106.96599 35429 ft 538 kts 59°
2026-05-04 20:41 38.87008 -106.92272 34881 ft 537 kts 59°
2026-05-04 20:41 38.88613 -106.87959 34420 ft 533 kts 59°
2026-05-04 20:42 38.90200 -106.83684 34035 ft 529 kts 59°
2026-05-04 20:42 38.91774 -106.79441 33562 ft 524 kts 59°
2026-05-04 20:42 38.93332 -106.75238 33109 ft 517 kts 59°
2026-05-04 20:42 38.94855 -106.71120 32786 ft 503 kts 59°
2026-05-04 20:43 38.96336 -106.67110 32347 ft 493 kts 59°
2026-05-04 20:43 38.97795 -106.63166 31901 ft 483 kts 59°
2026-05-04 20:43 38.99221 -106.59301 31510 ft 473 kts 59°
2026-05-04 20:43 39.00613 -106.55518 31212 ft 462 kts 59°
2026-05-04 20:44 39.01963 -106.51828 30989 ft 451 kts 59°
2026-05-04 20:44 39.03287 -106.48206 30771 ft 448 kts 60°
2026-05-04 20:44 39.04621 -106.44566 30590 ft 452 kts 60°
2026-05-04 20:44 39.05963 -106.40899 30394 ft 452 kts 60°
2026-05-04 20:45 39.07294 -106.37249 30173 ft 449 kts 60°
2026-05-04 20:45 39.08610 -106.33634 29876 ft 444 kts 60°
2026-05-04 20:45 39.09911 -106.30053 29531 ft 439 kts 60°
2026-05-04 20:45 39.11195 -106.26516 29102 ft 434 kts 60°
2026-05-04 20:46 39.12471 -106.23003 28676 ft 431 kts 60°
2026-05-04 20:46 39.13731 -106.19529 28267 ft 426 kts 61°
2026-05-04 20:46 39.14982 -106.16075 27806 ft 424 kts 61°
2026-05-04 20:46 39.16200 -106.12701 27470 ft 417 kts 61°
2026-05-04 20:47 39.17406 -106.09344 27172 ft 410 kts 61°
2026-05-04 20:47 39.18597 -106.06029 26755 ft 406 kts 61°
2026-05-04 20:47 39.19779 -106.02737 26327 ft 403 kts 61°
2026-05-04 20:47 39.20951 -105.99469 25902 ft 401 kts 62°
2026-05-04 20:48 39.22118 -105.96215 25466 ft 398 kts 62°
2026-05-04 20:48 39.23276 -105.92981 24963 ft 396 kts 62°
2026-05-04 20:48 39.24427 -105.89771 24549 ft 394 kts 62°
2026-05-04 20:48 39.25580 -105.86569 24139 ft 392 kts 62°
2026-05-04 20:49 39.26727 -105.83391 23737 ft 390 kts 62°
2026-05-04 20:49 39.27867 -105.80225 23325 ft 388 kts 62°
2026-05-04 20:49 39.29001 -105.77073 22854 ft 385 kts 62°
2026-05-04 20:49 39.30123 -105.73952 22429 ft 382 kts 63°
2026-05-04 20:50 39.31234 -105.70856 22018 ft 378 kts 63°
2026-05-04 20:50 39.32334 -105.67786 21650 ft 374 kts 63°
2026-05-04 20:50 39.33429 -105.64758 21260 ft 371 kts 63°
2026-05-04 20:50 39.34524 -105.61762 20864 ft 367 kts 63°
2026-05-04 20:51 39.35610 -105.58795 20497 ft 364 kts 63°
2026-05-04 20:51 39.36685 -105.55855 20109 ft 360 kts 63°
2026-05-04 20:51 39.37746 -105.52946 19750 ft 356 kts 63°
2026-05-04 20:51 39.38798 -105.50060 19385 ft 353 kts 63°
2026-05-04 20:52 39.39837 -105.47203 19015 ft 350 kts 63°
2026-05-04 20:52 39.40865 -105.44371 18661 ft 346 kts 64°
2026-05-04 20:52 39.41667 -105.41502 18283 ft 345 kts 82°
2026-05-04 20:52 39.41800 -105.38432 17951 ft 339 kts 90°
2026-05-04 20:53 39.41808 -105.35399 17587 ft 335 kts 91°
2026-05-04 20:53 39.41796 -105.32410 17267 ft 332 kts 91°
2026-05-04 20:53 39.41788 -105.29423 16934 ft 332 kts 90°
2026-05-04 20:53 39.41787 -105.26431 16600 ft 333 kts 91°
2026-05-04 20:54 39.41792 -105.23450 16240 ft 330 kts 91°
2026-05-04 20:54 39.41802 -105.20497 15886 ft 327 kts 91°
2026-05-04 20:54 39.41813 -105.17571 15550 ft 323 kts 91°
2026-05-04 20:54 39.41825 -105.14679 15217 ft 321 kts 91°
2026-05-04 20:55 39.41837 -105.11804 14893 ft 318 kts 91°
2026-05-04 20:55 39.41848 -105.08955 14565 ft 316 kts 91°
2026-05-04 20:55 39.41858 -105.06130 14225 ft 313 kts 91°
2026-05-04 20:55 39.41869 -105.03329 13907 ft 310 kts 91°
2026-05-04 20:56 39.41878 -105.00553 13584 ft 307 kts 91°
2026-05-04 20:56 39.41887 -104.97829 13341 ft 300 kts 91°
2026-05-04 20:56 39.41894 -104.95169 13017 ft 291 kts 91°
2026-05-04 20:56 39.41996 -104.92598 12729 ft 283 kts 85°
2026-05-04 20:57 39.42226 -104.90118 12453 ft 273 kts 83°
2026-05-04 20:57 39.42457 -104.87732 12201 ft 261 kts 84°
2026-05-04 20:57 39.42674 -104.85440 11966 ft 256 kts 84°
2026-05-04 20:57 39.42885 -104.83153 11721 ft 256 kts 84°
2026-05-04 20:58 39.43089 -104.80882 11482 ft 259 kts 84°
2026-05-04 20:58 39.43299 -104.78521 11220 ft 261 kts 84°
2026-05-04 20:58 39.43822 -104.76306 10997 ft 258 kts 56°
2026-05-04 20:58 39.44992 -104.74657 10985 ft 251 kts 38°
2026-05-04 20:59 39.46388 -104.73279 10996 ft 253 kts 36°
2026-05-04 20:59 39.47826 -104.71916 10993 ft 259 kts 36°
2026-05-04 20:59 39.49273 -104.70526 10987 ft 258 kts 36°
2026-05-04 20:59 39.50700 -104.69136 10966 ft 256 kts 36°
2026-05-04 21:00 39.52110 -104.67753 10976 ft 253 kts 37°
2026-05-04 21:00 39.53609 -104.66569 10887 ft 256 kts 14°
2026-05-04 21:00 39.55377 -104.66275 10656 ft 258 kts 359°
2026-05-04 21:00 39.57155 -104.66296 10341 ft 253 kts 357°
2026-05-04 21:01 39.58894 -104.66324 10026 ft 247 kts 358°
2026-05-04 21:01 39.60591 -104.66321 9726 ft 242 kts 358°
2026-05-04 21:01 39.62267 -104.66304 9424 ft 241 kts 359°
2026-05-04 21:01 39.63941 -104.66283 9091 ft 239 kts 359°
2026-05-04 21:02 39.65579 -104.66262 8778 ft 232 kts 359°
2026-05-04 21:02 39.67178 -104.66243 8459 ft 228 kts 359°
2026-05-04 21:02 39.68752 -104.66224 8174 ft 225 kts 359°
2026-05-04 21:02 39.70309 -104.66205 7890 ft 221 kts 359°
2026-05-04 21:03 39.71818 -104.66187 7614 ft 213 kts 359°
2026-05-04 21:03 39.73265 -104.66169 7337 ft 204 kts 359°
2026-05-04 21:03 39.74662 -104.66153 7088 ft 196 kts 359°
2026-05-04 21:03 39.75971 -104.66137 6834 ft 181 kts 359°
2026-05-04 21:04 39.77151 -104.66122 6660 ft 160 kts 359°
2026-05-04 21:04 39.78213 -104.66110 6469 ft 146 kts 358°
2026-05-04 21:04 39.79214 -104.66098 6296 ft 144 kts 359°
2026-05-04 21:04 39.80219 -104.66081 6073 ft 145 kts 359°
2026-05-04 21:05 39.81273 -104.66062 5842 ft 154 kts 357°
2026-05-04 21:05 39.82345 -104.66056 5527 ft 153 kts 355°
2026-05-04 21:05 39.83380 -104.66045 5363 ft 140 kts 357°
2026-05-04 21:05 39.84214 -104.66040 5372 ft 98 kts
2026-05-04 21:06 39.84730 -104.66035 5376 ft 53 kts
2026-05-04 21:06 39.85029 -104.66039 5375 ft 37 kts 351°
2026-05-04 21:06 39.85244 -104.66121 5383 ft 25 kts 331°
2026-05-04 21:06 39.85350 -104.66198 5384 ft 13 kts 334°
2026-05-04 21:07 39.85436 -104.66236 5388 ft 13 kts 354°
2026-05-04 21:07 39.85527 -104.66237 5389 ft 14 kts
2026-05-04 21:07 39.85627 -104.66236 5391 ft 15 kts
2026-05-04 21:07 39.85727 -104.66235 5391 ft 14 kts 360°
2026-05-04 21:08 39.85828 -104.66236 5395 ft 15 kts
2026-05-04 21:08 39.85944 -104.66234 5393 ft 18 kts
2026-05-04 21:08 39.86062 -104.66232 5390 ft 10 kts 354°
2026-05-04 21:08 39.86106 -104.66301 5392 ft 12 kts 270°
2026-05-04 21:09 39.86107 -104.66427 5391 ft 16 kts 270°
2026-05-04 21:09 39.86122 -104.66601 5383 ft 22 kts 279°
2026-05-04 21:09 39.86128 -104.66816 5379 ft 25 kts 271°
2026-05-04 21:09 39.86136 -104.66991 5375 ft 12 kts 286°
2026-05-04 21:10 39.86203 -104.67033 5375 ft 11 kts
2026-05-04 21:10 39.86247 -104.67033 5374 ft 3 kts
2026-05-04 21:10 39.86256 -104.67033 5374 ft 0 kts